�������l�o���
Date,Time,MP-1(��Sv/h),MP-2(��Sv/h),MP-3(��Sv/h),MP-4(��Sv/h),MP-5(��Sv/h),MP-6(��Sv/h),MP-7(��Sv/h),MP-8(��Sv/h),����,����(m/s),���J
2018/10/02,00:00,0.770,1.159,0.810,1.447,1.011,0.459,0.798,0.758,�k��,4.6,��
2018/10/02,00:10,0.771,1.162,0.812,1.450,1.012,0.460,0.799,0.758,���k��,6.6,��
2018/10/02,00:20,0.770,1.164,0.810,1.449,1.013,0.461,0.801,0.758,��,8.3,��
2018/10/02,00:30,0.770,1.161,0.810,1.447,1.010,0.460,0.800,0.758,��,11.7,��
2018/10/02,00:40,0.770,1.160,0.810,1.447,1.012,0.460,0.803,0.759,��,10.0,��
2018/10/02,00:50,0.771,1.161,0.810,1.447,1.011,0.460,0.800,0.758,��,8.2,��
2018/10/02,01:00,0.771,1.162,0.809,1.448,1.012,0.460,0.799,0.757,���k��,8.4,��
2018/10/02,01:10,0.770,1.160,0.811,1.447,1.012,0.459,0.799,0.756,��,8.7,��
2018/10/02,01:20,0.771,1.159,0.810,1.447,1.010,0.461,0.798,0.758,��,9.7,��
2018/10/02,01:30,0.768,1.162,0.809,1.446,1.012,0.460,0.800,0.758,��,13.0,��
2018/10/02,01:40,0.769,1.159,0.809,1.448,1.013,0.460,0.799,0.757,��,12.4,��
2018/10/02,01:50,0.770,1.159,0.809,1.447,1.013,0.459,0.799,0.757,��,10.7,��
2018/10/02,02:00,0.769,1.159,0.809,1.448,1.010,0.458,0.800,0.756,��,11.6,��
2018/10/02,02:10,0.770,1.160,0.808,1.448,1.011,0.460,0.799,0.757,��,11.4,��
2018/10/02,02:20,0.770,1.162,0.807,1.448,1.015,0.461,0.801,0.756,��,9.8,��
2018/10/02,02:30,0.770,1.159,0.809,1.448,1.015,0.458,0.800,0.756,��,8.7,��
2018/10/02,02:40,0.771,1.162,0.809,1.448,1.012,0.459,0.800,0.755,��,7.9,��
2018/10/02,02:50,0.770,1.162,0.812,1.452,1.013,0.458,0.802,0.758,��,7.9,��
2018/10/02,03:00,0.772,1.165,0.812,1.451,1.013,0.462,0.799,0.754,��,6.8,��
2018/10/02,03:10,0.772,1.164,0.813,1.452,1.015,0.461,0.799,0.757,��,4.7,��
2018/10/02,03:20,0.773,1.164,0.812,1.454,1.013,0.461,0.800,0.760,���k��,2.6,��
2018/10/02,03:30,0.772,1.165,0.813,1.454,1.017,0.462,0.801,0.757,��,5.2,��
2018/10/02,03:40,0.773,1.164,0.812,1.452,1.016,0.462,0.801,0.760,���k��,8.9,��
2018/10/02,03:50,0.774,1.165,0.813,1.455,1.018,0.463,0.801,0.760,��,11.4,��
2018/10/02,04:00,0.775,1.168,0.811,1.454,1.018,0.462,0.801,0.759,��,8.4,��
2018/10/02,04:10,0.773,1.168,0.812,1.453,1.016,0.461,0.800,0.759,���k��,10.0,��
2018/10/02,04:20,0.774,1.166,0.813,1.456,1.016,0.461,0.800,0.759,���k��,10.7,��
2018/10/02,04:30,0.774,1.165,0.814,1.452,1.016,0.461,0.800,0.760,��,13.5,��
2018/10/02,04:40,0.773,1.165,0.814,1.453,1.016,0.461,0.799,0.759,��,14.2,��
2018/10/02,04:50,0.773,1.165,0.812,1.453,1.014,0.460,0.798,0.762,��,8.4,��
2018/10/02,05:00,0.773,1.164,0.812,1.452,1.014,0.459,0.797,0.759,���k��,5.1,��
2018/10/02,05:10,0.772,1.166,0.813,1.456,1.015,0.460,0.798,0.759,���k��,5.1,��
2018/10/02,05:20,0.771,1.166,0.813,1.453,1.017,0.460,0.800,0.760,���k��,4.1,��
2018/10/02,05:30,0.772,1.166,0.810,1.453,1.018,0.460,0.800,0.761,���k��,4.4,��
2018/10/02,05:40,0.771,1.167,0.812,1.454,1.018,0.463,0.801,0.759,���k��,4.8,��
2018/10/02,05:50,0.773,1.166,0.810,1.455,1.017,0.460,0.801,0.758,��,5.3,��
2018/10/02,06:00,0.772,1.165,0.812,1.451,1.018,0.460,0.801,0.760,���k��,5.7,��
2018/10/02,06:10,0.771,1.167,0.813,1.454,1.018,0.463,0.801,0.760,��,4.6,��
2018/10/02,06:20,0.772,1.168,0.810,1.453,1.018,0.460,0.803,0.759,��,4.7,��
2018/10/02,06:30,0.773,1.168,0.812,1.455,1.020,0.462,0.802,0.758,���k��,3.0,��
2018/10/02,06:40,0.772,1.165,0.811,1.455,1.018,0.463,0.801,0.760,���k��,5.4,��
2018/10/02,06:50,0.774,1.165,0.813,1.456,1.020,0.463,0.803,0.760,���k��,7.3,��
2018/10/02,07:00,0.774,1.166,0.815,1.457,1.020,0.462,0.802,0.759,��,8.4,��
2018/10/02,07:10,0.773,1.165,0.811,1.453,1.020,0.462,0.803,0.758,��,8.0,��
2018/10/02,07:20,0.773,1.163,0.814,1.455,1.021,0.461,0.804,0.759,��,7.2,��
2018/10/02,07:30,0.772,1.164,0.813,1.455,1.018,0.462,0.803,0.758,��,7.0,��
2018/10/02,07:40,0.773,1.164,0.813,1.457,1.019,0.463,0.803,0.760,��,8.4,��
2018/10/02,07:50,0.772,1.164,0.811,1.455,1.018,0.462,0.801,0.761,��,8.4,��
2018/10/02,08:00,0.770,1.165,0.813,1.453,1.022,0.461,0.802,0.760,��,9.2,��
2018/10/02,08:10,0.771,1.166,0.812,1.456,1.021,0.461,0.801,0.761,��,9.1,��
2018/10/02,08:20,0.772,1.166,0.813,1.457,1.022,0.460,0.801,0.759,���k��,11.6,��
2018/10/02,08:30,0.771,1.164,0.812,1.456,1.021,0.461,0.801,0.758,��,10.2,��
2018/10/02,08:40,0.773,1.163,0.815,1.453,1.021,0.459,0.800,0.760,��,10.3,��
2018/10/02,08:50,0.771,1.164,0.813,1.454,1.022,0.459,0.801,0.758,��,8.6,��
2018/10/02,09:00,0.774,1.166,0.813,1.455,1.024,0.461,0.802,0.757,��,5.9,��
2018/10/02,09:10,0.773,1.164,0.812,1.454,1.022,0.461,0.800,0.755,��,6.6,��
2018/10/02,09:20,0.773,1.163,0.813,1.455,1.024,0.460,0.802,0.756,��,4.9,��
2018/10/02,09:30,0.774,1.168,0.811,1.456,1.022,0.459,0.803,0.756,��,5.4,��
2018/10/02,09:40,0.773,1.159,0.811,1.456,1.023,0.460,0.801,0.757,���k��,7.7,��
2018/10/02,09:50,0.773,1.162,0.811,1.455,1.023,0.460,0.802,0.757,��,3.3,��
2018/10/02,10:00,0.774,1.162,0.812,1.459,1.024,0.461,0.802,0.758,���k��,7.5,��
2018/10/02,10:10,0.774,1.160,0.812,1.459,1.025,0.459,0.801,0.759,���k��,6.6,��
2018/10/02,10:20,0.773,1.161,0.813,1.458,1.024,0.461,0.803,0.758,��,7.3,��
2018/10/02,10:30,0.774,1.165,0.816,1.459,1.024,0.461,0.802,0.758,��,8.5,��
2018/10/02,10:40,0.777,1.165,0.814,1.461,1.026,0.464,0.802,0.757,��,7.2,��
2018/10/02,10:50,0.776,1.164,0.814,1.460,1.025,0.462,0.802,0.756,��,7.2,��
2018/10/02,11:00,0.774,1.163,0.815,1.459,1.027,0.461,0.803,0.758,���k��,7.4,��
2018/10/02,11:10,0.776,1.168,0.817,1.459,1.028,0.462,0.804,0.758,���k��,7.2,��
2018/10/02,11:20,0.778,1.169,0.814,1.460,1.028,0.459,0.803,0.760,��,10.6,��
2018/10/02,11:30,0.777,1.170,0.816,1.459,1.027,0.462,0.803,0.758,��,7.4,��
2018/10/02,11:40,0.776,1.171,0.814,1.457,1.027,0.461,0.803,0.758,��,7.0,��
2018/10/02,11:50,0.776,1.169,0.814,1.458,1.030,0.462,0.803,0.758,���k��,3.2,��
2018/10/02,12:00,0.776,1.171,0.815,1.461,1.029,0.462,0.802,0.756,���k��,5.4,��
2018/10/02,12:10,0.778,1.168,0.817,1.463,1.028,0.461,0.802,0.757,���k��,8.4,��
2018/10/02,12:20,0.779,1.169,0.818,1.461,1.030,0.461,0.804,0.760,��,8.5,��
2018/10/02,12:30,0.777,1.173,0.817,1.461,1.034,0.462,0.803,0.760,���k��,10.5,��
2018/10/02,12:40,0.777,1.167,0.818,1.460,1.032,0.462,0.805,0.759,��,8.9,��
2018/10/02,12:50,0.778,1.171,0.820,1.464,1.030,0.462,0.805,0.759,��,11.6,��
2018/10/02,13:00,0.776,1.172,0.819,1.462,1.032,0.462,0.804,0.762,��,9.0,��
2018/10/02,13:10,0.779,1.170,0.820,1.459,1.032,0.460,0.805,0.759,��,9.7,��
2018/10/02,13:20,0.780,1.169,0.818,1.462,1.032,0.460,0.804,0.759,���k��,8.4,��
2018/10/02,13:30,0.777,1.170,0.818,1.463,1.032,0.462,0.803,0.759,��,8.3,��
2018/10/02,13:40,0.780,1.172,0.820,1.460,1.033,0.463,0.805,0.759,��,6.6,��
2018/10/02,13:50,0.778,1.173,0.818,1.462,1.032,0.461,0.803,0.762,��,7.8,��
2018/10/02,14:00,0.780,1.172,0.821,1.463,1.035,0.462,0.806,0.760,��,9.0,��
2018/10/02,14:10,0.782,1.169,0.819,1.467,1.034,0.465,0.806,0.761,��,7.9,��
2018/10/02,14:20,0.780,1.171,0.819,1.465,1.034,0.463,0.805,0.760,���k��,7.0,��
2018/10/02,14:30,0.780,1.172,0.821,1.465,1.033,0.462,0.806,0.760,��,6.3,��
2018/10/02,14:40,0.781,1.173,0.821,1.466,1.034,0.461,0.806,0.760,��,5.9,��
2018/10/02,14:50,0.780,1.174,0.818,1.465,1.036,0.462,0.806,0.759,��,5.6,��
2018/10/02,15:00,0.779,1.175,0.820,1.467,1.035,0.463,0.806,0.762,���k��,6.8,��
2018/10/02,15:10,0.779,1.174,0.819,1.465,1.035,0.462,0.805,0.760,���k��,6.6,��
2018/10/02,15:20,0.780,1.175,0.821,1.468,1.034,0.463,0.806,0.761,��,4.5,��
2018/10/02,15:30,0.778,1.176,0.821,1.469,1.035,0.463,0.804,0.760,��,5.3,��
2018/10/02,15:40,0.781,1.176,0.820,1.469,1.036,0.462,0.805,0.758,��,4.2,��
2018/10/02,15:50,0.777,1.175,0.821,1.469,1.035,0.464,0.804,0.761,���쐼,3.7,��
2018/10/02,16:00,0.779,1.180,0.820,1.468,1.034,0.464,0.805,0.760,��쐼,3.0,��
2018/10/02,16:10,0.780,1.176,0.821,1.468,1.033,0.462,0.803,0.759,��,1.9,��
2018/10/02,16:20,0.781,1.178,0.819,1.468,1.033,0.461,0.803,0.760,-,CALM,��
2018/10/02,16:30,0.780,1.179,0.819,1.468,1.034,0.463,0.804,0.758,�쐼,1.7,��
2018/10/02,16:40,0.779,1.176,0.820,1.468,1.033,0.462,0.804,0.758,��,1.7,��
2018/10/02,16:50,0.781,1.178,0.819,1.470,1.037,0.463,0.803,0.759,��쐼,2.6,��
2018/10/02,17:00,0.778,1.179,0.818,1.468,1.035,0.465,0.804,0.761,�쐼,2.6,��
2018/10/02,17:10,0.781,1.178,0.820,1.470,1.039,0.464,0.805,0.761,��쐼,2.3,��
2018/10/02,17:20,0.782,1.180,0.822,1.470,1.039,0.464,0.805,0.763,��쐼,2.0,��
2018/10/02,17:30,0.783,1.183,0.822,1.469,1.038,0.463,0.804,0.761,��,2.3,��
2018/10/02,17:40,0.779,1.182,0.821,1.469,1.038,0.465,0.805,0.761,��쐼,2.2,��
2018/10/02,17:50,0.781,1.178,0.824,1.467,1.040,0.462,0.804,0.761,�쐼,3.7,��
2018/10/02,18:00,0.784,1.182,0.822,1.468,1.037,0.464,0.804,0.761,�쐼,4.8,��
2018/10/02,18:10,0.782,1.182,0.823,1.470,1.038,0.463,0.805,0.762,���쐼,5.6,��
2018/10/02,18:20,0.781,1.181,0.822,1.469,1.039,0.465,0.804,0.762,��,5.5,��
2018/10/02,18:30,0.783,1.182,0.822,1.472,1.038,0.466,0.806,0.763,��,5.2,��
2018/10/02,18:40,0.781,1.182,0.824,1.470,1.038,0.463,0.806,0.762,��,4.6,��
2018/10/02,18:50,0.781,1.181,0.822,1.471,1.037,0.464,0.806,0.762,���쐼,4.3,��
2018/10/02,19:00,0.783,1.180,0.821,1.473,1.037,0.464,0.806,0.761,���쐼,4.4,��
2018/10/02,19:10,0.781,1.183,0.821,1.468,1.038,0.464,0.806,0.763,���쐼,5.1,��
2018/10/02,19:20,0.782,1.182,0.822,1.471,1.041,0.464,0.805,0.762,���쐼,4.5,��
2018/10/02,19:30,0.783,1.180,0.822,1.467,1.037,0.463,0.804,0.762,��,4.4,��
2018/10/02,19:40,0.781,1.183,0.820,1.469,1.038,0.464,0.805,0.762,��,5.0,��
2018/10/02,19:50,0.782,1.179,0.824,1.470,1.036,0.463,0.805,0.763,���k��,4.6,��
2018/10/02,20:00,0.781,1.181,0.823,1.472,1.038,0.465,0.805,0.762,��,4.9,��
2018/10/02,20:10,0.781,1.182,0.822,1.470,1.038,0.461,0.804,0.762,���k��,4.6,��
2018/10/02,20:20,0.783,1.184,0.823,1.471,1.040,0.463,0.804,0.762,���k��,5.0,��
2018/10/02,20:30,0.782,1.182,0.823,1.470,1.038,0.463,0.805,0.762,���k��,5.0,��
2018/10/02,20:40,0.782,1.184,0.821,1.470,1.037,0.462,0.806,0.763,��,3.6,��
2018/10/02,20:50,0.782,1.182,0.823,1.472,1.038,0.465,0.804,0.762,��,2.9,��
2018/10/02,21:00,0.784,1.180,0.821,1.471,1.039,0.463,0.804,0.762,���쐼,4.0,��
2018/10/02,21:10,0.782,1.182,0.821,1.469,1.038,0.462,0.804,0.761,���쐼,3.8,��
2018/10/02,21:20,0.782,1.179,0.823,1.469,1.038,0.463,0.805,0.761,���쐼,2.9,��
2018/10/02,21:30,0.782,1.181,0.823,1.466,1.038,0.461,0.804,0.763,���쐼,2.9,��
2018/10/02,21:40,0.784,1.183,0.822,1.470,1.038,0.464,0.804,0.762,���쐼,3.2,��
2018/10/02,21:50,0.782,1.182,0.823,1.470,1.038,0.463,0.805,0.763,��,2.6,��
2018/10/02,22:00,0.782,1.183,0.822,1.471,1.038,0.464,0.804,0.763,��,2.3,��
2018/10/02,22:10,0.780,1.182,0.824,1.470,1.037,0.461,0.805,0.763,��,1.7,��
2018/10/02,22:20,0.781,1.179,0.823,1.470,1.037,0.463,0.803,0.763,���k��,1.7,��
2018/10/02,22:30,0.778,1.183,0.823,1.469,1.040,0.462,0.805,0.762,�k��,1.7,��
2018/10/02,22:40,0.782,1.182,0.824,1.472,1.039,0.462,0.804,0.762,���k��,1.2,��
2018/10/02,22:50,0.781,1.180,0.821,1.470,1.039,0.462,0.806,0.762,���k��,1.1,��
2018/10/02,23:00,0.781,1.181,0.821,1.471,1.040,0.463,0.805,0.762,���k��,1.5,��
2018/10/02,23:10,0.782,1.182,0.823,1.469,1.038,0.463,0.803,0.763,���k��,2.2,��
2018/10/02,23:20,0.780,1.181,0.822,1.469,1.039,0.462,0.802,0.763,���k��,2.9,��
2018/10/02,23:30,0.779,1.180,0.822,1.471,1.038,0.461,0.803,0.760,��,1.9,��
2018/10/02,23:40,0.781,1.181,0.822,1.471,1.038,0.461,0.803,0.762,��,1.5,��
2018/10/02,23:50,0.779,1.180,0.822,1.469,1.039,0.462,0.803,0.763,���k��,1.2,��
